Flag for Germany Weather past 2 weeks in Helmstedt, Lower Saxony, Germany

Now
50 °F

Scattered clouds.


Feels Like: 42 °F
Forecast: 36 / 43 °F
Wind: 31 mph from West

Location: Braunschweig

Current Time: Mar 31, 2015 at 11:55:08 AM

Latest Report: Mar 31, 2015 at 11:20 AM


Visibility: N/A

Pressure: 29.12 "Hg

Humidity: 82%

Dew point: 45 °F

Location of HelmstedtLocation

Historic Weather in Helmstedt — Graph

°F

Helmstedt temperature yesterday

Maximum temperature yesterday: 48 °F (at 3:50 PM)
Minimum temperature yesterday: 39 °F (at 12:20 PM)
Average temperature yesterday: 42 °F

Past Weeks' High & Low Weather Summary

 TemperatureHumidityPressure
High61 °F (Mar 18, 3:20 PM)100% (Mar 17, 6:50 AM)30.39 "Hg (Mar 17, 6:50 AM)
Low27 °F (Mar 23, 6:50 AM)38% (Mar 19, 5:20 PM)29.06 "Hg (Mar 31, 7:50 AM)
Average46 °F75%29.97 "Hg
* Reported Mar 16 9:20 AM — Mar 31 10:50 AM, Helmstedt, Weather by CustomWeather, © 2015

Note: Actual official high and low records may vary slightly from our data, if they occured in-between our weather recording intervals... More about our weather records

Advertising

Helmstedt weather history for previous 24 hours

 ConditionsComfort  
Time TempWeatherWind HumidityBarometerVisibility
10:50 AM
Tue, Mar 31
50 °FPartly sunny.30 mph71%29.12 "HgN/A
10:20 AM50 °FPartly sunny.26 mph76%29.09 "HgN/A
9:50 AM48 °FBroken clouds.20 mph87%29.09 "HgN/A
9:20 AM46 °FScattered clouds.23 mph93%29.06 "HgN/A
8:50 AM45 °FLight rain. Cloudy.20 mph100%29.06 "Hg5 mi
8:20 AM43 °FLight rain. Mostly cloudy.21 mph100%29.06 "Hg4 mi
7:50 AM43 °FLight rain. Mostly cloudy.15 mph100%29.06 "Hg4 mi
7:20 AM39 °FLight rain. Mostly cloudy.6 mph100%29.09 "Hg4 mi
6:50 AM37 °FLight rain. Mostly cloudy.12 mph100%29.12 "HgN/A
6:20 AM36 °FLight rain. Mostly cloudy.9 mph100%29.18 "HgN/A
9:50 PM
Mon, Mar 30
39 °FPassing clouds.9 mph70%29.71 "HgN/A
9:20 PM41 °FPassing clouds.10 mph70%29.71 "HgN/A
8:50 PM41 °FPassing clouds.13 mph76%29.71 "HgN/A
8:20 PM41 °FPassing clouds.10 mph76%29.68 "HgN/A
7:50 PM43 °FBroken clouds.15 mph66%29.68 "HgN/A
7:20 PM43 °FScattered clouds.16 mph66%29.65 "HgN/A
6:50 PM43 °FPassing clouds.18 mph66%29.65 "HgN/A
6:20 PM43 °FBroken clouds.18 mph76%29.62 "HgN/A
5:50 PM45 °FScattered clouds.16 mph71%29.59 "HgN/A
5:20 PM43 °FLight rain. Broken clouds.20 mph76%29.56 "HgN/A
4:50 PM39 °FScattered clouds.10 mph100%29.56 "HgN/A
4:20 PM46 °FHeavy rain. Partly sunny.20 mph66%29.53 "Hg4 mi
3:50 PM48 °FScattered clouds.20 mph58%29.50 "HgN/A
3:20 PM46 °FPartly sunny.18 mph57%29.50 "HgN/A
2:50 PM46 °FBroken clouds.20 mph66%29.50 "HgN/A
2:20 PM46 °FScattered clouds.18 mph76%29.47 "HgN/A
1:50 PM45 °FScattered clouds.22 mph76%29.47 "HgN/A
1:20 PM39 °FScattered clouds.28 mph87%29.45 "HgN/A
12:50 PM41 °FDrizzle. More clouds than sun.15 mph100%29.45 "HgN/A
12:20 PM39 °FLight rain. Overcast.22 mph100%29.42 "Hg4 mi
11:50 AM41 °FLight rain. Mostly cloudy.24 mph93%29.39 "HgN/A
11:20 AM43 °FLight rain. Mostly cloudy.25 mph76%29.36 "HgN/A
Weather by CustomWeather, © 2015

See weather overviewHow to use our weather pages